Regional Weather Roundup
Issued by NWS Sterling, VA

Home | Current Version | Previous Version | Graphics & Text | Print | Product List | Glossary On
Versions: 1 2 3 4 5 6 7 8 9 10 11 12 13 14 15 16 17 18 19 20 21 22 23 24 25 26 27 28 29 30 31 32 33 34 35 36 37 38 39 40 41 42 43 44 45 46 47 48 49 50
000
ASUS41 KLWX 040610
RWRLWX

REGIONAL WEATHER ROUNDUP
NATIONAL WEATHER SERVICE BALTIMORE MD/WASHINGTON DC
200 AM EDT FRI SEP 04 2015

Note: "FAIR" indicates few or no clouds below 12,000 feet
with no significant weather and/or obstructions to visibility.
 TC=TEMPERATURE CELSIUS

 * =Non NWS site. Station does not report precipitation (e.g. rain,
    snow, etc.), thunder, or fog.

DCZ001-MDZ009-015-VAZ040>042-051-053>054-040700-
WASHINGTON METRO

CITY           SKY/WX    TMP DP  RH WIND       PRES   REMARKS
WASHINGTON NAT MOCLDY    79  69  71 N6        29.91S
DULLES         PTCLDY    77  67  71 NW5       29.92S
ANDREWS AFB    PTCLDY    72  70  95 CALM      29.90S
FT BELVOIR     PTCLDY    71  69  92 CALM      29.90S
QUANTICO       PTCLDY    76  70  82 NW7       29.91S
COLLEGE PARK*  PTCLDY    72  72 100 CALM      29.90S
LEESBURG*      PTCLDY    73  72  94 N3        29.94S
MANASSAS*      PTCLDY    72  72 100 CALM      29.92R
GAITHERSBURG*  PTCLDY    72  66  83 CALM      29.96S

$$

MDZ006>007-011-014-040700-
BALTIMORE METRO

CITY           SKY/WX    TMP DP  RH WIND       PRES   REMARKS
BWI AIRPORT    MOCLDY    72  69  90 CALM      29.89F
MD SCIENCE CTR   N/A     82  67  60 MISG      29.90S
ANNAPOLIS      PTCLDY    77  73  87 NW3       29.88F
FORT MEADE*    PTCLDY    68  66  94 CALM      29.93S

$$

MDZ012-015-019>023-040700-
MARYLAND EASTERN SHORE

CITY           SKY/WX    TMP DP  RH WIND       PRES   REMARKS
OCEAN CITY     CLEAR     73  70  90 NW5       29.88S
SALISBURY      CLEAR     72  70  93 CALM      29.89S FOG
BAY BRIDGE AP*   N/A     77  72  83 NW3       29.89S
CAMBRIDGE*     PTCLDY    72  68  88 CALM      29.88F

$$

MDZ017>025-040700-
SOUTHERN MARYLAND

CITY           SKY/WX    TMP DP  RH WIND       PRES   REMARKS
PATUXENT RIVER PTCLDY    72  69  90 W5        29.88F
ST INIGOES     PTCLDY    73  71  93 CALM      29.88S FOG
LEONARDTOWN*   NOT AVBL

$$

MDZ003>005-040700-
NORTH CENTRAL MARYLAND

CITY           SKY/WX    TMP DP  RH WIND       PRES   REMARKS
FREDERICK*     PTCLDY    70  70 100 CALM      29.95S FOG
HAGERSTOWN APT PTCLDY    73  68  84 E3        29.95S
WESTMINSTER*   PTCLDY    75  70  83 CALM      29.94S

$$

MDZ501>502-040700-
WESTERN MARYLAND

CITY           SKY/WX    TMP DP  RH WIND       PRES   REMARKS
OAKLAND*       PTCLDY    64  63  94 CALM      30.09S
CUMBERLAND*      N/A     70  70 100 CALM      30.02S

$$

VAZ025>031-040700-
SHENANDOAH VALLEY

CITY           SKY/WX    TMP DP  RH WIND       PRES   REMARKS
WINCHESTER*    PTCLDY    70  68  94 CALM      29.96S
FRONT ROYAL*   FAIR      70  68  94 S6        29.96R
LURAY*         FAIR      68  68 100 CALM      29.98S FOG
NEW MARKET*    FAIR      66  66  99 CALM      29.97S
STAUNTON*      FOG       68  66  94 CALM      30.02S VSB 1
WAYNESBORO*    FAIR      68  65  92 CALM      30.01S

$$

WVZ021-048>050-054>055-040700-
EASTERN WEST VIRGINIA PANHANDLE

CITY           SKY/WX    TMP DP  RH WIND       PRES   REMARKS
MARTINSBURG    MOCLDY    67  66  97 CALM      29.95S FOG
PETERSBURG*      N/A     66  66  99 CALM      30.00F FOG

$$

VAZ036>039-050-040700-
CENTRAL FOOTHILLS

CITY           SKY/WX    TMP DP  RH WIND       PRES   REMARKS
CHARLOTTESVILL PTCLDY    73  68  84 CALM      29.94R
CULPEPER*      MOCLDY    70  69  95 N5        29.93S
ORANGE*        MOCLDY    72  68  88 CALM      29.94S
GORDONSVILLE*  FAIR      71  69  92 CALM      29.93R
WARRENTON*     FAIR      71  69  96 CALM      29.92S

$$

VAZ055>057-040700-
NORTH AND CENTRAL PIEDMONT

CITY           SKY/WX    TMP DP  RH WIND       PRES   REMARKS
FREDERICKSBRG* MOCLDY    74  72  93 CALM      29.91R
STAFFORD*      PTCLDY    70  68  93 NW3       29.95S FOG

$$

NCZ024-NYZ072-PAZ021-071-VAZ022-071-040700-
OTHER REGIONAL OBSERVATIONS

CITY           SKY/WX    TMP DP  RH WIND       PRES   REMARKS
NEW YORK CITY  PTCLDY    81  66  60 VRB3      29.94R
PHILADELPHIA   CLOUDY    78  70  76 CALM      29.90S
PITTSBURGH     MOCLDY    72  65  78 CALM      30.00S
ROANOKE        CLEAR     74  66  76 NE3       30.00S
RICHMOND       PTCLDY    77  70  79 N3        29.90S
RALEIGH        PTCLDY    70  67  90 CALM      29.92F

$$

ANZ530>537-040700-
MARINE OBSERVATIONS

STATION/POSITION TIME  TEMP    WIND        PRES
                       AIR SEA DIR/SP/G
                 (UTC) (F)     (DEG/KT/KT) (MB)
THOMAS PT LIGHT  NOT AVBL
BALT KEY BRIDGE  0500   81     240/  3/  3 1012.3R
COVE POINT       0500   81     290/  3/  5 1012.6F
LEWISETTA        0500   79 83  230/  1/  3 1011.6F
SOLOMONS ISLAND  0500      82                N/A
PINEY POINT      0505          170/  1/  2   N/A

$$



USA.gov is the U.S. government's official web portal to all federal, state and local government web resources and services.